Вернуться в каталог

THOR ABLESTAR DEB

АктивенLEO
NORAD 327·DEBRIS·🇺🇸 United States

Запущен Jun 29, 1961 с Cape Canaveral Space Force Station

Loading…

Ближайшие Пролёты (ближайшие 24 часа)

TLE

СвежийSource: Space-Track

Эпоха: Sep 7, 2026, 05:58 UTC

1 00327U 61015DD  26250.24868954  .00000078  00000-0  11940-3 0  9999
2 00327  66.5428 185.3826 0104531  79.6728 281.6113 13.90900149298154

Отслеживайте THOR ABLESTAR DEB в реальном времени с AllMySat

Download on the App Store